Location: Cussy
(47.0410°N, 4.6412°E)
Time: 20:45:59
(UTC+00:00)

Meteor 2-6 Rocket - Pass Details

Date: 30 November 2020
Orbit: 806 x 914 km, 81.3° (Epoch: 27 January)

Event Time Altitude Azimuth Distance (km) Brightness Sun altitude
Rises 17:34:42 0° 169° (S) 3,414 7.4 -16.5°
Reaches altitude 10° 17:37:14 10° 163° (SSE) 2,466 6.6 -16.9°
Maximum altitude 17:42:29 44° 93° (E) 1,140 4.4 -17.8°
Enters shadow 17:45:56 20° 31° (NNE) 1,829 5.6 -18.3°
